This demonstration page uses our WeatherBlox Daily Observations layout. Learn more.

36.17497, -115.13722

Hourly Observations for May 23, 2015

Temp ( °F °C ) Dew Point ( °F °C ) Humidity (%) Winds ( mph kmh ) Pressure ( in mb ) Visibility ( mi km ) Precip ( " mm )
12:53 am 00:53 Mostly Cloudy 61 16.1 38 3.3 43 43 E 3 6 29.91 1013 10 16.0934 0 0
1:53 am 01:53 Clear 60 15.6 39 3.9 46 46 N 5 7 29.91 1013 10 16.0934 0 0
2:53 am 02:53 Clear 59 15 39 3.9 48 48 N 6 9 29.91 1013 10 16.0934 0 0
3:53 am 03:53 Mostly Clear 59 15 38 3.3 46 46 NNW 6 9 29.91 1013 10 16.0934 0 0
4:53 am 04:53 Clear 58 14.4 38 3.3 48 48 Calm 29.91 1013 10 16.0934 0 0
5:53 am 05:53 Sunny 58 14.4 38 3.3 48 48 Calm 29.93 1014 10 16.0934 0 0
6:53 am 06:53 Partly Cloudy 60 15.6 40 4.4 47 47 NNE 3 6 29.95 1014 10 16.0934 0 0
7:53 am 07:53 Mostly Sunny 62 16.7 40 4.4 44 44 Calm 29.96 1015 10 16.0934 0 0
8:53 am 08:53 Mostly Sunny 64 17.8 40 4.4 41 41 SSE 3 6 29.96 1015 10 16.0934 0 0
9:53 am 09:53 Mostly Sunny 69 20.6 39 3.9 33 33 SSW 5 7 29.95 1014 10 16.0934 0 0
10:53 am 10:53 Sunny 72 22.2 38 3.3 29 29 SSE 9 15 29.93 1014 10 16.0934 0 0
11:53 am 11:53 Sunny 73 22.8 38 3.3 28 28 S 8 13 29.92 1013 10 16.0934 0 0
12:53 pm 12:53 Partly Cloudy 75 23.9 37 2.8 25 25 VRB 3 6 29.89 1012 10 16.0934 0 0
1:53 pm 13:53 Mostly Cloudy 78 25.6 37 2.8 23 23 VRB 5 7 29.88 1012 10 16.0934 0 0
2:53 pm 14:53 Mostly Sunny 77 25 38 3.3 24 24 WSW 8 13 29.86 1011 10 16.0934 0 0
3:53 pm 15:53 Mostly Sunny 78 25.6 38 3.3 24 24 W 12 19 29.83 1010 10 16.0934 0 0
4:53 pm 16:53 Sunny 78 25.6 36 2.2 22 22 W 6 9 29.81 1010 10 16.0934 0 0
5:53 pm 17:53 Mostly Sunny 79 26.1 35 1.7 20 20 W 7 11 29.8 1009 10 16.0934 0 0
6:53 pm 18:53 Cloudy 79 26.1 35 1.7 20 20 WSW 6 9 29.8 1009 10 16.0934 0 0
7:23 pm 19:23 Cloudy 75 23.9 42 5.6 31 31 NW 20 31 29.68 1005 10 16.0934 0 0.0254
7:53 pm 19:53 Cloudy 75 23.9 42 5.6 31 31 NNW 8 13 29.81 1009 10 16.0934 0 0.0254
8:53 pm 20:53 Cloudy 77 25 35 1.7 22 22 NNE 5 7 29.8 1009 10 16.0934 0 0
9:53 pm 21:53 Cloudy 72 22.2 43 6.1 35 35 N 10 17 29.82 1010 10 16.0934 0 0
10:53 pm 22:53 Mostly Clear 73 22.8 42 5.6 33 33 Calm 29.82 1010 10 16.0934 0 0
11:53 pm 23:53 Cloudy 72 22.2 42 5.6 34 34 NNE 7 11 29.83 1010 10 16.0934 0 0

Powered by AerisWeather